When you browse on this site, cookies collect data to enhance your experience and personalize the content and advertising you see.
Visit our Privacy Policy to learn more. By continuing to use the site, you agree to this use of cookies and data.
  • In Hungary
  • List of Countries
  • For 7 days
  • Water Temperature
  • Satellite Maps
  • Weather Map
  • News
  • Weather Widgets
  • user-avatar
    Login

    Hourly Weather Ternovka

    Today, 17 November, Saturday

    Time Temperature Precipitation Wind Pressure Humidity
    00:00 -5°C° 0 mm 3 mps 765 mmHg 30%
    01:00 -6°C° 0 mm 3 mps 764 mmHg 31%
    02:00 -6°C° 0 mm 3 mps 764 mmHg 31%
    03:00 -5°C° 0 mm 2 mps 764 mmHg 31%
    04:00 -5°C° 0 mm 2 mps 764 mmHg 31%
    05:00 -5°C° 0 mm 2 mps 764 mmHg 31%
    06:00 -5°C° 0 mm 2 mps 763 mmHg 31%
    07:00 -5°C° 0 mm 2 mps 763 mmHg 29%
    08:00 -4°C° 0 mm 2 mps 763 mmHg 28%
    09:00 -4°C° 0 mm 2 mps 763 mmHg 26%
    10:00 -3°C° 0 mm 2 mps 762 mmHg 24%
    11:00 +1°C° 0 mm 1 mps 762 mmHg 22%
    12:00 +2°C° 0 mm 1 mps 762 mmHg 19%
    13:00 +2°C° 0 mm 1 mps 761 mmHg 21%
    14:00 +2°C° 0 mm 1 mps 761 mmHg 23%
    15:00 +2°C° 0 mm 1 mps 760 mmHg 24%
    16:00 +1°C° 0 mm 1 mps 760 mmHg 25%
    17:00 0°C° 0 mm 1 mps 760 mmHg 26%
    18:00 -1°C° 0 mm 1 mps 759 mmHg 27%
    19:00 -1°C° 0 mm 1 mps 759 mmHg 26%
    20:00 -1°C° 0 mm 1 mps 758 mmHg 26%
    21:00 -2°C° 0 mm 1 mps 758 mmHg 25%
    22:00 -2°C° 0 mm 1 mps 757 mmHg 25%
    23:00 -2°C° 0 mm 1 mps 757 mmHg 25%

    Tomorrow, 18 November, Sunday

    Time Temperature Precipitation Wind Pressure Humidity
    00:00 -4°C° 0 mm 2 mps 757 mmHg 25%
    01:00 -4°C° 0 mm 2 mps 756 mmHg 26%
    02:00 -5°C° 0 mm 2 mps 756 mmHg 26%
    03:00 -5°C° 0 mm 2 mps 755 mmHg 27%
    04:00 -5°C° 0 mm 2 mps 755 mmHg 28%
    05:00 -5°C° 0 mm 2 mps 754 mmHg 29%
    06:00 -5°C° 0 mm 2 mps 754 mmHg 29%
    07:00 -5°C° 0 mm 2 mps 754 mmHg 30%
    08:00 -4°C° 0 mm 2 mps 753 mmHg 31%
    09:00 -4°C° 0 mm 2 mps 753 mmHg 31%
    10:00 -3°C° 0 mm 2 mps 753 mmHg 30%
    11:00 -2°C° 0 mm 2 mps 753 mmHg 29%
    12:00 0°C° 0 mm 3 mps 753 mmHg 28%
    13:00 +1°C° 0 mm 2 mps 753 mmHg 31%
    14:00 +1°C° 0 mm 2 mps 753 mmHg 33%
    15:00 +1°C° 0 mm 2 mps 753 mmHg 35%
    16:00 -1°C° 0 mm 2 mps 753 mmHg 38%
    17:00 -2°C° 0 mm 2 mps 753 mmHg 40%
    18:00 -3°C° 0 mm 2 mps 753 mmHg 42%
    19:00 -1°C° 0 mm 1 mps 753 mmHg 43%
    20:00 -1°C° 0 mm 1 mps 753 mmHg 43%
    21:00 -1°C° 0 mm 1 mps 753 mmHg 43%
    22:00 -2°C° 0 mm 1 mps 753 mmHg 43%
    23:00 -2°C° 0 mm 1 mps 753 mmHg 43%

    Day after tomorrow, 19 November, Monday

    Time Temperature Precipitation Wind Pressure Humidity
    00:00 -2°C° 0 mm 1 mps 754 mmHg 44%
    01:00 -2°C° 0 mm 1 mps 754 mmHg 44%
    02:00 -2°C° 0 mm 1 mps 754 mmHg 44%
    03:00 -3°C° 0 mm 0 mps 754 mmHg 44%
    04:00 -2°C° 0 mm 1 mps 754 mmHg 43%
    05:00 -2°C° 0 mm 1 mps 754 mmHg 43%
    06:00 -3°C° 0 mm 1 mps 754 mmHg 43%
    07:00 -2°C° 0 mm 1 mps 755 mmHg 41%
    08:00 -2°C° 0 mm 1 mps 755 mmHg 40%
    09:00 -2°C° 0 mm 1 mps 756 mmHg 38%
    10:00 0°C° 0 mm 1 mps 756 mmHg 35%
    11:00 +1°C° 0 mm 1 mps 756 mmHg 32%
    12:00 +2°C° 0 mm 1 mps 756 mmHg 29%
    13:00 +2°C° 0 mm 1 mps 756 mmHg 30%
    14:00 +2°C° 0 mm 1 mps 756 mmHg 32%
    15:00 +1°C° 0 mm 2 mps 756 mmHg 33%
    16:00 -1°C° 0 mm 2 mps 756 mmHg 35%
    17:00 -2°C° 0 mm 2 mps 756 mmHg 37%
    18:00 -3°C° 0 mm 2 mps 756 mmHg 38%
    19:00 -3°C° 0 mm 2 mps 756 mmHg 39%
    20:00 -3°C° 0 mm 2 mps 757 mmHg 39%
    21:00 -3°C° 0 mm 2 mps 757 mmHg 40%
    22:00 -3°C° 0 mm 2 mps 757 mmHg 41%
    23:00 -3°C° 0 mm 2 mps 757 mmHg 42%

    20 November, Tuesday

    Time Temperature Precipitation Wind Pressure Humidity
    00:00 -3°C° 0 mm 2 mps 757 mmHg 44%
    01:00 -3°C° 0 mm 2 mps 757 mmHg 44%
    02:00 -4°C° 0 mm 3 mps 757 mmHg 44%
    03:00 -4°C° 0 mm 3 mps 757 mmHg 44%
    04:00 -4°C° 0 mm 3 mps 756 mmHg 43%
    05:00 -4°C° 0 mm 3 mps 756 mmHg 42%
    06:00 -4°C° 0 mm 3 mps 756 mmHg 41%
    07:00 -4°C° 0 mm 3 mps 756 mmHg 39%
    08:00 -3°C° 0 mm 4 mps 756 mmHg 37%
    09:00 -3°C° 0 mm 4 mps 756 mmHg 35%
    10:00 -3°C° 0 mm 4 mps 755 mmHg 33%
    11:00 -2°C° 0 mm 4 mps 755 mmHg 31%
    12:00 -1°C° 0 mm 4 mps 754 mmHg 30%
    13:00 -1°C° 0 mm 4 mps 754 mmHg 30%
    14:00 -1°C° 0 mm 4 mps 754 mmHg 30%
    15:00 -1°C° 0 mm 4 mps 753 mmHg 31%
    16:00 -2°C° 0.1 mm 5 mps 753 mmHg 40%
    17:00 -4°C° 0.1 mm 5 mps 752 mmHg 48%
    18:00 -4°C° 0.1 mm 5 mps 752 mmHg 57%
    19:00 -4°C° 0.6 mm 5 mps 751 mmHg 68%
    20:00 -5°C° 0.6 mm 5 mps 751 mmHg 79%
    21:00 -5°C° 0.6 mm 5 mps 750 mmHg 89%
    22:00 -5°C° 0.3 mm 5 mps 750 mmHg 90%
    23:00 -5°C° 0.3 mm 5 mps 749 mmHg 90%

    21 November, Wednesday

    Time Temperature Precipitation Wind Pressure Humidity
    00:00 -4°C° 0.3 mm 5 mps 749 mmHg 90%
    01:00 -3°C° 0.1 mm 4 mps 748 mmHg 90%
    02:00 -3°C° 0.1 mm 4 mps 748 mmHg 90%
    03:00 -3°C° 0.1 mm 4 mps 747 mmHg 90%
    04:00 -2°C° 0.1 mm 3 mps 747 mmHg 91%
    05:00 -4°C° 0.1 mm 3 mps 746 mmHg 91%
    06:00 -3°C° 0.1 mm 2 mps 746 mmHg 92%
    07:00 -3°C° 0.2 mm 2 mps 746 mmHg 92%
    08:00 -4°C° 0.2 mm 3 mps 746 mmHg 92%
    09:00 -2°C° 0.2 mm 3 mps 746 mmHg 92%
    10:00 -2°C° 0.1 mm 3 mps 746 mmHg 91%
    11:00 -2°C° 0.1 mm 3 mps 746 mmHg 90%
    12:00 -2°C° 0.1 mm 3 mps 746 mmHg 89%
    13:00 -3°C° 0.1 mm 4 mps 746 mmHg 88%
    14:00 -3°C° 0.1 mm 4 mps 746 mmHg 88%
    15:00 -4°C° 0.1 mm 5 mps 746 mmHg 88%
    16:00 -4°C° 0 mm 5 mps 746 mmHg 88%
    17:00 -4°C° 0 mm 5 mps 746 mmHg 88%
    18:00 -4°C° 0 mm 5 mps 747 mmHg 89%
    19:00 -5°C° 0 mm 5 mps 747 mmHg 88%
    20:00 -5°C° 0 mm 5 mps 747 mmHg 87%
    21:00 -5°C° 0 mm 5 mps 747 mmHg 87%
    22:00 -6°C° 0 mm 5 mps 747 mmHg 88%
    23:00 -5°C° 0 mm 4 mps 748 mmHg 89%

    22 November, Thursday

    Time Temperature Precipitation Wind Pressure Humidity
    00:00 -7°C° 0 mm 4 mps 748 mmHg 91%
    01:00 -7°C° 0 mm 4 mps 748 mmHg 92%
    02:00 -7°C° 0 mm 4 mps 748 mmHg 92%
    03:00 -7°C° 0 mm 4 mps 748 mmHg 93%
    04:00 -7°C° 0 mm 4 mps 748 mmHg 93%
    05:00 -7°C° 0 mm 4 mps 748 mmHg 93%
    06:00 -7°C° 0 mm 4 mps 748 mmHg 93%
    07:00 -7°C° 0 mm 4 mps 748 mmHg 91%
    08:00 -7°C° 0 mm 4 mps 748 mmHg 89%
    09:00 -5°C° 0 mm 4 mps 749 mmHg 87%
    10:00 -6°C° 0 mm 5 mps 749 mmHg 83%
    11:00 -5°C° 0 mm 5 mps 749 mmHg 78%
    12:00 -5°C° 0 mm 5 mps 749 mmHg 73%
    13:00 -5°C° 0 mm 5 mps 749 mmHg 75%
    14:00 -5°C° 0 mm 5 mps 749 mmHg 77%
    15:00 -5°C° 0 mm 4 mps 749 mmHg 78%
    16:00 -5°C° 0 mm 4 mps 749 mmHg 81%
    17:00 -7°C° 0 mm 4 mps 749 mmHg 84%
    18:00 -7°C° 0 mm 3 mps 749 mmHg 86%
    19:00 -7°C° 0 mm 3 mps 749 mmHg 88%
    20:00 -8°C° 0 mm 4 mps 749 mmHg 89%
    21:00 -8°C° 0 mm 4 mps 749 mmHg 91%
    22:00 -8°C° 0 mm 4 mps 749 mmHg 91%
    23:00 -8°C° 0 mm 4 mps 749 mmHg 90%
    Show more